Total_Precipitation_Accumulation
0.39 0.39 0.38 0.37 0.31 0.29 0.32 0.36 0.66 0.98 1.32 1.72 1.90 1.84 1.79 1.71 1.49 1.21 1.10 1.08 1.05 1.04 1.04 0.98 0.91 0.86 0.81 0.80 0.80 0.84 0.86 0.85 0.77 0.69 0.67 0.67 0.67 0.68 0.64 0.59 0.55 0.54 0.51 0.47
0.35 0.29 0.33 0.38 0.38 0.41 0.45 0.50 0.67 1.05 1.57 1.95 2.04 1.91 1.85 1.78 1.63 1.49 1.40 1.32 1.29 1.22 1.19 1.17 1.08 0.97 0.90 0.89 0.90 0.91 0.96 1.01 1.03 0.98 0.90 0.83 0.76 0.69 0.64 0.61 0.53 0.43 0.37 0.36
0.57 0.34 0.47 0.78 0.63 0.55 0.60 0.66 0.85 1.33 1.65 1.69 1.77 1.87 1.95 1.99 1.89 1.76 1.65 1.58 1.53 1.48 1.41 1.34 1.27 1.20 1.15 1.07 1.01 0.98 1.00 1.02 1.02 0.98 0.90 0.81 0.69 0.61 0.60 0.58 0.53 0.47 0.37 0.32
0.63 0.67 1.15 1.06 0.61 0.57 0.71 0.81 0.88 1.07 1.26 1.36 1.36 1.45 1.54 1.65 1.71 1.69 1.56 1.52 1.53 1.52 1.51 1.48 1.36 1.27 1.22 1.15 1.10 1.04 1.03 0.99 0.94 0.85 0.75 0.63 0.57 0.55 0.55 0.54 0.54 0.50 0.43 0.37
0.69 0.96 1.15 1.00 0.57 0.56 0.91 1.35 1.10 1.05 0.98 0.92 0.89 0.99 1.29 1.47 1.51 1.59 1.61 1.60 1.57 1.51 1.44 1.40 1.31 1.25 1.20 1.17 1.10 1.03 0.99 0.88 0.76 0.67 0.63 0.58 0.55 0.54 0.53 0.50 0.49 0.46 0.41 0.40
0.76 1.11 1.38 1.26 0.56 0.40 0.78 1.65 1.32 1.11 0.98 0.89 1.00 1.19 1.25 1.24 1.25 1.33 1.37 1.39 1.31 1.22 1.15 1.16 1.17 1.13 1.08 1.05 0.99 0.92 0.79 0.65 0.56 0.55 0.55 0.55 0.52 0.49 0.48 0.48 0.47 0.41 0.37 0.38
0.85 1.20 1.40 0.72 0.36 0.52 1.26 1.60 1.29 1.10 0.97 0.92 1.10 1.15 0.98 0.96 1.04 1.05 1.09 1.07 0.99 0.94 1.00 1.05 1.05 0.98 0.94 0.88 0.82 0.71 0.62 0.54 0.50 0.48 0.44 0.46 0.46 0.45 0.45 0.45 0.49 0.47 0.45 0.41
0.97 1.30 1.40 0.58 0.41 0.74 0.93 0.79 0.87 0.89 0.85 0.79 0.75 0.64 0.66 0.72 0.77 0.74 0.75 0.76 0.73 0.76 0.82 0.84 0.77 0.78 0.83 0.78 0.66 0.55 0.57 0.57 0.53 0.47 0.39 0.43 0.53 0.52 0.48 0.53 0.57 0.55 0.52 0.46
0.97 1.16 0.94 0.51 0.43 0.48 0.55 0.64 0.64 0.65 0.62 0.51 0.45 0.42 0.49 0.52 0.50 0.50 0.50 0.56 0.59 0.60 0.64 0.68 0.66 0.68 0.74 0.72 0.60 0.57 0.64 0.62 0.51 0.41 0.45 0.48 0.53 0.51 0.45 0.44 0.42 0.40 0.39 0.38
0.67 0.77 0.61 0.50 0.44 0.42 0.42 0.45 0.42 0.43 0.44 0.35 0.33 0.37 0.42 0.45 0.41 0.39 0.41 0.44 0.49 0.51 0.50 0.54 0.54 0.59 0.64 0.58 0.57 0.69 0.75 0.64 0.48 0.42 0.42 0.42 0.42 0.37 0.33 0.34 0.33 0.31 0.29 0.27
0.66 0.69 0.65 0.64 0.45 0.36 0.31 0.29 0.28 0.31 0.32 0.28 0.28 0.34 0.35 0.37 0.38 0.39 0.39 0.41 0.45 0.48 0.46 0.42 0.43 0.48 0.46 0.49 0.60 0.79 0.75 0.61 0.50 0.42 0.39 0.37 0.30 0.23 0.18 0.17 0.15 0.19 0.21 0.19
0.60 0.54 0.62 0.68 0.50 0.36 0.34 0.29 0.27 0.25 0.25 0.29 0.31 0.33 0.31 0.30 0.33 0.36 0.36 0.37 0.43 0.44 0.39 0.39 0.41 0.42 0.41 0.45 0.52 0.68 0.68 0.52 0.43 0.38 0.33 0.27 0.24 0.22 0.14 0.09 0.07 0.07 0.08 0.08
0.32 0.31 0.36 0.36 0.30 0.26 0.26 0.27 0.27 0.25 0.24 0.28 0.31 0.31 0.29 0.27 0.27 0.31 0.35 0.36 0.41 0.41 0.36 0.34 0.35 0.37 0.34 0.34 0.39 0.49 0.52 0.40 0.31 0.28 0.29 0.26 0.24 0.28 0.29 0.16 0.07 0.06 0.07 0.07
0.17 0.21 0.27 0.27 0.28 0.25 0.25 0.27 0.26 0.23 0.25 0.29 0.31 0.29 0.26 0.23 0.23 0.26 0.30 0.27 0.24 0.25 0.28 0.30 0.28 0.26 0.20 0.20 0.27 0.30 0.27 0.19 0.18 0.22 0.22 0.20 0.18 0.19 0.22 0.25 0.26 0.20 0.12 0.08
0.16 0.18 0.24 0.28 0.29 0.26 0.28 0.30 0.28 0.26 0.25 0.27 0.25 0.21 0.19 0.18 0.18 0.19 0.19 0.17 0.19 0.23 0.23 0.21 0.21 0.20 0.14 0.13 0.17 0.18 0.16 0.15 0.14 0.14 0.13 0.13 0.11 0.11 0.12 0.17 0.26 0.28 0.21 0.13
0.19 0.19 0.21 0.25 0.29 0.30 0.30 0.33 0.31 0.27 0.20 0.19 0.18 0.17 0.16 0.14 0.13 0.12 0.13 0.13 0.19 0.23 0.20 0.19 0.19 0.14 0.09 0.09 0.11 0.11 0.10 0.09 0.10 0.10 0.11 0.10 0.09 0.10 0.12 0.15 0.18 0.21 0.21 0.15
0.24 0.23 0.20 0.20 0.22 0.26 0.23 0.20 0.20 0.19 0.16 0.16 0.14 0.12 0.10 0.10 0.11 0.11 0.12 0.13 0.17 0.19 0.18 0.17 0.13 0.07 0.04 0.04 0.07 0.07 0.05 0.04 0.04 0.06 0.08 0.08 0.08 0.10 0.11 0.12 0.15 0.16 0.13 0.11
0.24 0.20 0.17 0.15 0.16 0.18 0.15 0.11 0.11 0.14 0.14 0.13 0.09 0.07 0.08 0.09 0.10 0.10 0.10 0.09 0.11 0.14 0.14 0.10 0.07 0.04 0.03 0.03 0.05 0.05 0.04 0.04 0.03 0.05 0.06 0.06 0.07 0.08 0.09 0.11 0.11 0.12 0.12 0.11
0.13 0.10 0.10 0.10 0.10 0.10 0.11 0.11 0.10 0.11 0.10 0.08 0.07 0.07 0.07 0.07 0.06 0.07 0.07 0.08 0.11 0.13 0.11 0.06 0.03 0.03 0.03 0.02 0.03 0.03 0.02 0.02 0.02 0.03 0.04 0.04 0.05 0.06 0.07 0.07 0.08 0.09 0.11 0.13
0.07 0.06 0.07 0.07 0.06 0.07 0.09 0.10 0.08 0.07 0.06 0.05 0.05 0.06 0.05 0.05 0.04 0.04 0.06 0.09 0.10 0.09 0.06 0.03 0.02 0.04 0.03 0.01 0.01 0.01 0.01 0.01 0.02 0.02 0.03 0.04 0.04 0.04 0.05 0.05 0.06 0.08 0.10 0.13
0.07 0.06 0.06 0.05 0.06 0.07 0.08 0.08 0.07 0.07 0.05 0.03 0.04 0.04 0.04 0.04 0.03 0.03 0.05 0.08 0.07 0.05 0.03 0.01 0.03 0.02 0.01 0.01 0.00 0.00 0.01 0.01 0.02 0.02 0.02 0.03 0.03 0.03 0.04 0.05 0.07 0.08 0.10 0.12
0.08 0.06 0.07 0.07 0.07 0.08 0.09 0.08 0.07 0.06 0.04 0.03 0.03 0.03 0.03 0.03 0.03 0.03 0.04 0.06 0.05 0.02 0.02 0.01 0.01 0.01 0.00 0.00 0.00 0.01 0.01 0.01 0.01 0.02 0.02 0.02 0.02 0.03 0.04 0.05 0.06 0.07 0.08 0.08
0.12 0.09 0.09 0.09 0.09 0.11 0.11 0.09 0.06 0.04 0.03 0.02 0.02 0.02 0.03 0.03 0.02 0.02 0.03 0.03 0.01 0.00 0.02 0.01 0.00 0.00 0.00 0.00 0.01 0.01 0.01 0.01 0.01 0.02 0.01 0.01 0.02 0.02 0.03 0.03 0.04 0.05 0.06 0.07
0.17 0.14 0.12 0.12 0.14 0.15 0.13 0.08 0.05 0.03 0.03 0.02 0.02 0.02 0.03 0.02 0.01 0.01 0.01 0.01 0.00 0.00 0.01 0.00 0.00 0.00 0.00 0.00 0.01 0.01 0.01 0.01 0.01 0.01 0.01 0.01 0.01 0.02 0.02 0.03 0.03 0.03 0.04 0.05
0.16 0.16 0.16 0.17 0.21 0.18 0.13 0.08 0.05 0.04 0.03 0.03 0.02 0.02 0.02 0.01 0.01 0.01 0.01 0.00 0.00 0.00 0.00 0.00 0.00 0.00 0.00 0.01 0.01 0.01 0.01 0.01 0.01 0.01 0.01 0.02 0.02 0.02 0.02 0.03 0.03 0.03 0.04 0.05
0.23 0.25 0.24 0.19 0.17 0.15 0.11 0.07 0.06 0.06 0.05 0.04 0.03 0.02 0.02 0.01 0.01 0.01 0.01 0.00 0.00 0.00 0.00 0.00 0.00 0.00 0.01 0.01 0.01 0.01 0.01 0.01 0.01 0.01 0.01 0.02 0.02 0.02 0.02 0.03 0.03 0.04 0.05 0.05
0.33 0.31 0.28 0.23 0.16 0.12 0.10 0.07 0.07 0.06 0.05 0.04 0.03 0.02 0.01 0.01 0.01 0.01 0.01 0.01 0.00 0.00 0.00 0.00 0.00 0.00 0.01 0.01 0.01 0.01 0.01 0.01 0.02 0.02 0.02 0.02 0.02 0.02 0.02 0.03 0.04 0.05 0.05 0.04